Flag for South Korea Weather past 2 weeks in Seoul, South Korea

Now
48 °F

Clear.


Feels Like: 46 °F
Forecast: 44 / 72 °F
Wind: 6 mph from South

Location: Seoul / Kimp'O International Airport

Current Time: Apr 26, 2015 at 4:25:07 AM

Latest Report: Apr 26, 2015 at 4:00 AM


Visibility: 10 mi

Pressure: 30.09 "Hg

Humidity: 40%

Dew point: 25 °F

Location of SeoulLocation

Historic Weather in Seoul — Graph

°F

Seoul temperature yesterday

Maximum temperature yesterday: 72 °F (at 2:00 PM)
Minimum temperature yesterday: 39 °F (at 6:00 AM)
Average temperature yesterday: 57 °F

Past Weeks' High & Low Weather Summary

 TemperatureHumidityPressure
High73 °F (Apr 18, 4:00 PM)88% (Apr 19, 7:00 PM)30.33 "Hg (Apr 19, 7:00 PM)
Low36 °F (Apr 17, 5:00 AM)7% (Apr 18, 4:00 PM)29.62 "Hg (Apr 20, 5:00 AM)
Average54 °F48%29.99 "Hg
* Reported Apr 11 3:00 AM — Apr 26 3:00 AM, Seoul, Weather by CustomWeather, © 2015

Note: Actual official high and low records may vary slightly from our data, if they occured in-between our weather recording intervals... More about our weather records

Advertising

Seoul weather history for previous 24 hours

 ConditionsComfort  
Time TempWeatherWind HumidityBarometerVisibility
3:00 AM
Sun, Apr 26
46 °FClear.3 mph43%30.09 "Hg10 mi
2:00 AM48 °FClear.3 mph32%30.09 "Hg10 mi
1:00 AM50 °FClear.1 mph47%30.09 "Hg10 mi
12:00 AM48 °FClear.1 mph58%30.09 "Hg10 mi
11:00 PM
Sat, Apr 25
50 °FClear.5 mph43%30.12 "Hg10 mi
10:00 PM52 °FClear.2 mph44%30.12 "Hg10 mi
9:00 PM54 °FClear.6 mph41%30.09 "Hg10 mi
8:00 PM57 °FClear.6 mph36%30.09 "Hg10 mi
7:00 PM61 °FSunny.8 mph27%30.09 "Hg10 mi
6:00 PM66 °FPassing clouds.8 mph11%30.09 "HgN/A
5:00 PM68 °FSunny.9 mph10%30.09 "Hg10 mi
4:00 PM70 °FSunny.13 mph10%30.09 "Hg10 mi
3:00 PM70 °FPassing clouds.9 mph12%30.09 "HgN/A
2:00 PM72 °FPassing clouds.9 mph12%30.12 "HgN/A
1:00 PM70 °FSunny.12 mph12%30.12 "Hg10 mi
12:00 PM70 °FPassing clouds.8 mph15%30.12 "HgN/A
11:00 AM68 °FPassing clouds.5 mph17%30.15 "HgN/A
10:00 AM64 °FPassing clouds.3 mph18%30.15 "HgN/A
9:00 AM61 °FPassing clouds.5 mph25%30.15 "HgN/A
8:00 AM57 °FSunny.2 mph33%30.15 "Hg10 mi
7:00 AM50 °FSunny.3 mph58%30.15 "Hg10 mi
6:00 AM39 °FClear.6 mph65%30.12 "Hg5 mi
5:00 AM43 °FFog.3 mph57%30.12 "Hg3 mi
4:00 AM41 °FClear.7 mph61%30.12 "Hg4 mi
Weather by CustomWeather, © 2015

See weather overviewHow to use our weather pages